Springfield, CO

7:07 PM MDT on August 31, 2016 (GMT -0600)
Springfield

Weather History for KSPD - September, 2013

Change the Weather History Date:

Wednesday, September 18, 2013

  Actual Average Record
Temperature  
Mean Temperature 76 °F -  
Max Temperature 87 °F 80 °F 95 °F (2005)
Min Temperature 65 °F 51 °F 39 °F (2003)
Degree Days  
Heating Degree Days 0 3  
Month to date heating degree days 1 28  
Since 1 July heating degree days 2 35  
Cooling Degree Days 11 3  
Month to date cooling degree days 171 90  
Year to date cooling degree days 1335 991  
Growing Degree Days 25 (Base 50)    
Moisture  
Dew Point 60 °F    
Average Humidity 63    
Maximum Humidity 84    
Minimum Humidity 42    
Precipitation  
Precipitation 0.00 in 0.04 in 0.16 in (2002)
Month to date precipitation 3.13 0.87  
Year to date precipitation 12.87 14.61  
Sea Level Pressure  
Sea Level Pressure 29.70 in    
Wind  
Wind Speed 15 mph (SSW)    
Max Wind Speed 28 mph    
Max Gust Speed 36 mph    
T = Trace of Precipitation, MM = Missing Value Source: NWS Daily Summary

Daily Weather History Graph

Daily Weather History Graph

Search for Another Location

Airport or City:

Trip Planner

Search our weather history database for the weather conditions in past years. The results will help you decide how hot, cold, wet, or windy it might be!

Date:

Astronomy

Sep. 18, 2013 Rise Set
Actual Time 6:35 AM MDT 6:53 PM MDT
Civil Twilight 6:09 AM MDT 7:19 PM MDT
Nautical Twilight 5:38 AM MDT 7:49 PM MDT
Astronomical Twilight 5:07 AM MDT 8:20 PM MDT
Moon 6:17 PM MDT (9/18) 5:40 AM MDT (9/18)
Length of Visible Light 13h 09m
Length of Day
12h 17m
Waxing Gibbous, 99% of the Moon is Illuminated
Sep 18
Waxing Gibbous
Sep 19
Full
Sep 26
Last Quarter
Oct 4
New
Oct 11
First Quarter

Hourly Weather History & Observations

Time (MDT) Temp. Heat Index Dew Point Humidity Pressure Visibility Wind Dir Wind Speed Gust Speed Precip Events Conditions
12:56 AM 66.9 °F - 59.0 °F 76% 29.75 in - SSW 15.0 mph - N/A   Unknown
1:56 AM 66.9 °F - 60.1 °F 79% 29.74 in - SSW 17.3 mph 24.2 mph N/A   Unknown
2:56 AM 66.9 °F - 59.0 °F 76% 29.73 in - SSW 17.3 mph 28.8 mph N/A   Unknown
3:56 AM 66.9 °F - 59.0 °F 76% 29.71 in - SW 18.4 mph 27.6 mph N/A   Unknown
4:56 AM 66.0 °F - 59.0 °F 78% 29.69 in - SSW 17.3 mph 27.6 mph N/A   Unknown
5:56 AM 64.9 °F - 59.0 °F 81% 29.72 in - SSW 15.0 mph 21.9 mph N/A   Unknown
6:56 AM 64.9 °F - 59.0 °F 81% 29.75 in - SW 13.8 mph 20.7 mph N/A   Unknown
7:56 AM 69.1 °F - 59.0 °F 70% 29.75 in - SW 19.6 mph 28.8 mph N/A   Unknown
8:56 AM 73.0 °F - 60.1 °F 64% 29.74 in - SW 19.6 mph 26.5 mph N/A   Unknown
9:56 AM 77.0 °F - 60.1 °F 56% 29.73 in - SSW 16.1 mph 23.0 mph N/A   Unknown
10:56 AM 79.0 °F - 60.1 °F 52% 29.72 in - SW 9.2 mph 20.7 mph N/A   Unknown
11:56 AM 82.0 °F 82.4 °F 60.1 °F 47% 29.70 in - SW 12.7 mph 20.7 mph N/A   Unknown
12:56 PM 84.9 °F 84.8 °F 60.1 °F 43% 29.68 in - SSW 10.4 mph 17.3 mph N/A   Unknown
1:56 PM 86.0 °F 86.3 °F 62.1 °F 44% 29.66 in - SSW 15.0 mph 21.9 mph N/A   Unknown
2:56 PM 86.0 °F 86.1 °F 61.0 °F 43% 29.65 in - SSW 20.7 mph 27.6 mph N/A   Unknown
3:56 PM 84.9 °F 84.8 °F 60.1 °F 43% 29.63 in - South 26.5 mph 32.2 mph N/A   Unknown
4:56 PM 82.0 °F 82.1 °F 59.0 °F 45% 29.63 in - SSW 24.2 mph 34.5 mph N/A   Unknown
5:56 PM 80.1 °F 80.7 °F 59.0 °F 48% 29.65 in - SSW 17.3 mph 28.8 mph N/A   Unknown
6:56 PM 75.9 °F - 60.1 °F 58% 29.68 in - SSW 10.4 mph - N/A   Unknown
7:56 PM 73.9 °F - 61.0 °F 64% 29.69 in - SSW 11.5 mph - N/A   Unknown
8:56 PM 72.0 °F - 61.0 °F 68% 29.71 in - SSW 10.4 mph - N/A   Unknown
9:56 PM 71.1 °F - 60.1 °F 68% 29.71 in - SSW 10.4 mph - N/A   Unknown
10:56 PM 71.1 °F - 59.0 °F 66% 29.71 in - SSW 11.5 mph - N/A   Unknown
11:56 PM 70.0 °F - 59.0 °F 68% 29.73 in - WNW 11.5 mph - N/A   Unknown